| time (UTC) | temp C | wind direction | speed KPH | gust KPH | rain 1hr cm | rain 24hr cm | rain mn cm | humidity % | barometer mb |
| 20260505124620 | 24 | 349 | 0.0 | 3.2 | 0.00 | 0.00 | 0.00 | 38 | 1004.7 |
| 20260505123540 | 24 | 108 | 1.6 | 3.2 | 0.00 | 0.00 | 0.00 | 38 | 1004.7 |
| 20260505122540 | 23 | 60 | 1.6 | 4.8 | 0.00 | 0.00 | 0.00 | 39 | 1004.8 |
| 20260505121601 | 23 | 59 | 4.8 | 9.7 | 0.00 | 0.00 | 0.00 | 38 | 1004.8 |
| 20260505120621 | 24 | 43 | 3.2 | 9.7 | 0.00 | 0.00 | 0.00 | 37 | 1004.9 |
| 20260505115541 | 25 | 179 | 1.6 | 4.8 | 0.00 | 0.00 | 0.00 | 35 | 1005.0 |
| 20260505114602 | 23 | 84 | 1.6 | 4.8 | 0.00 | 0.00 | 0.00 | 35 | 1005.0 |
| 20260505113542 | 23 | 107 | 4.8 | 8.0 | 0.00 | 0.00 | 0.00 | 37 | 1005.1 |
| 20260505112543 | 23 | 101 | 3.2 | 9.7 | 0.00 | 0.00 | 0.00 | 35 | 1005.3 |
| 20260505111543 | 23 | 85 | 3.2 | 9.7 | 0.00 | 0.00 | 0.00 | 37 | 1005.3 |
| 20260505110544 | 23 | 54 | 3.2 | 9.7 | 0.00 | 0.00 | 0.00 | 41 | 1005.5 |
| 20260505101606 | 23 | 74 | 4.8 | 9.7 | 0.00 | 0.00 | 0.00 | 45 | 1006.3 |
| 20260505100546 | 23 | 182 | 1.6 | 4.8 | 0.00 | 0.00 | 0.00 | 42 | 1006.3 |
| 20260505095607 | 22 | 125 | 1.6 | 4.8 | 0.00 | 0.00 | 0.00 | 41 | 1006.5 |
| 20260505094608 | 22 | 133 | 1.6 | 4.8 | 0.00 | 0.00 | 0.00 | 49 | 1006.5 |
| 20260505093547 | 21 | 62 | 1.6 | 4.8 | 0.00 | 0.00 | 0.00 | 50 | 1006.6 |
| 20260505092547 | 22 | 93 | 1.6 | 8.0 | 0.00 | 0.00 | 0.00 | 51 | 1007.1 |
| 20260505091548 | 22 | 129 | 1.6 | 4.8 | 0.00 | 0.00 | 0.00 | 48 | 1007.1 |
| 20260505090548 | 21 | 151 | 1.6 | 4.8 | 0.00 | 0.00 | 0.00 | 48 | 1007.1 |
| 20260505085550 | 20 | 95 | 1.6 | 4.8 | 0.00 | 0.00 | 0.00 | 54 | 1007.2 |
| 20260505084549 | 21 | 53 | 1.6 | 3.2 | 0.00 | 0.00 | 0.00 | 55 | 1007.2 |
| 20260505083551 | 21 | 53 | 1.6 | 4.8 | 0.00 | 0.00 | 0.00 | 58 | 1007.2 |
| 20260505082550 | 20 | 117 | 1.6 | 4.8 | 0.00 | 0.00 | 0.00 | 59 | 1007.5 |
| 20260505081551 | 20 | 104 | 1.6 | 3.2 | 0.00 | 0.00 | 0.00 | 63 | 1007.6 |
| 20260505080551 | 18 | 136 | 0.0 | 1.6 | 0.00 | 0.00 | 0.00 | 67 | 1007.7 |
| 20260505075552 | 17 | 74 | 0.0 | 1.6 | 0.00 | 0.00 | 0.00 | 71 | 1007.7 |
| 20260505074552 | 17 | 72 | 1.6 | 3.2 | 0.00 | 0.00 | 0.00 | 71 | 1007.8 |
| 20260505073612 | 17 | 69 | 0.0 | 1.6 | 0.00 | 0.00 | 0.00 | 70 | 1007.8 |
| 20260505072554 | 17 | 109 | 0.0 | 3.2 | 0.00 | 0.00 | 0.00 | 71 | 1007.9 |
| 20260505071553 | 17 | 21 | 1.6 | 3.2 | 0.00 | 0.00 | 0.00 | 70 | 1008.0 |
| 20260505070554 | 17 | 69 | 0.0 | 3.2 | 0.00 | 0.00 | 0.00 | 72 | 1008.1 |
| 20260505065554 | 16 | 62 | 1.6 | 3.2 | 0.00 | 0.00 | 0.00 | 74 | 1008.1 |
| 20260505064554 | 16 | 30 | 1.6 | 4.8 | 0.00 | 0.00 | 0.00 | 73 | 1008.1 |
| 20260505063555 | 16 | 69 | 1.6 | 3.2 | 0.00 | 0.00 | 0.00 | 73 | 1008.0 |
| 20260505062555 | 16 | 86 | 1.6 | 3.2 | 0.00 | 0.00 | 0.00 | 74 | 1008.1 |
| 20260505061616 | 15 | 79 | 1.6 | 8.0 | 0.00 | 0.00 | 0.00 | 75 | 1008.0 |
| 20260505060616 | 15 | 77 | 1.6 | 4.8 | 0.00 | 0.00 | 0.00 | 75 | 1008.1 |
| 20260505055556 | 15 | 62 | 1.6 | 4.8 | 0.00 | 0.00 | 0.00 | 76 | 1008.1 |
| 20260505054558 | 15 | 55 | 1.6 | 3.2 | 0.00 | 0.00 | 0.00 | 76 | 1008.2 |
| 20260505053558 | 15 | 0.0 | 0.0 | 0.00 | 0.00 | 0.00 | 76 | 1008.4 | |
| 20260505052558 | 15 | 0.0 | 0.0 | 0.00 | 0.00 | 0.00 | 75 | 1008.3 | |
| 20260505051558 | 13 | 0.0 | 0.0 | 0.00 | 0.00 | 0.00 | 79 | 1008.3 | |
| 20260505050558 | 12 | 0.0 | 0.0 | 0.00 | 0.00 | 0.00 | 84 | 1008.4 | |
| 20260505041533 | 8 | 0.0 | 0.0 | 0.00 | 0.00 | 0.00 | 99 | 1008.3 | |
| 20260505040533 | 7 | 0.0 | 0.0 | 0.00 | 0.00 | 0.00 | 98 | 1008.3 | |
| 20260505035614 | 8 | 0.0 | 0.0 | 0.00 | 0.00 | 0.00 | 98 | 1008.4 | |
| 20260505034534 | 8 | 0.0 | 0.0 | 0.00 | 0.00 | 0.00 | 98 | 1008.5 | |
| 20260505033534 | 8 | 0.0 | 0.0 | 0.00 | 0.00 | 0.00 | 98 | 1008.4 | |
| 20260505032534 | 8 | 0.0 | 0.0 | 0.00 | 0.00 | 0.00 | 98 | 1008.5 | |
| 20260505031535 | 8 | 91 | 0.0 | 1.6 | 0.00 | 0.00 | 0.00 | 97 | 1008.7 |
| 20260505030535 | 8 | 86 | 0.0 | 1.6 | 0.00 | 0.00 | 0.00 | 96 | 1008.5 |
| 20260505025536 | 8 | 0.0 | 0.0 | 0.00 | 0.00 | 0.00 | 95 | 1008.5 | |
| 20260505024536 | 9 | 112 | 0.0 | 3.2 | 0.00 | 0.00 | 0.00 | 96 | 1008.6 |
| 20260505023537 | 9 | 0.0 | 0.0 | 0.00 | 0.00 | 0.00 | 95 | 1008.7 | |
| 20260505022538 | 9 | 0.0 | 1.6 | 0.00 | 0.00 | 0.00 | 95 | 1008.9 | |
| 20260505021538 | 9 | 0.0 | 0.0 | 0.00 | 0.00 | 0.00 | 94 | 1009.1 | |
| 20260505020538 | 10 | 81 | 0.0 | 1.6 | 0.00 | 0.00 | 0.00 | 94 | 1009.1 |
| 20260505015538 | 10 | 0.0 | 0.0 | 0.00 | 0.00 | 0.00 | 93 | 1009.2 | |
| 20260505014539 | 10 | 0.0 | 0.0 | 0.00 | 0.00 | 0.00 | 91 | 1009.0 | |
| 20260505013539 | 10 | 0.0 | 0.0 | 0.00 | 0.00 | 0.00 | 91 | 1009.2 | |
| 20260505012600 | 10 | 0.0 | 0.0 | 0.00 | 0.00 | 0.00 | 90 | 1009.1 | |
| 20260505011600 | 11 | 0.0 | 0.0 | 0.00 | 0.00 | 0.00 | 88 | 1009.2 | |
| 20260505010600 | 11 | 0.0 | 0.0 | 0.00 | 0.00 | 0.00 | 86 | 1009.4 | |
| 20260505005542 | 12 | 130 | 0.0 | 1.6 | 0.00 | 0.00 | 0.00 | 84 | 1009.4 |
| 20260505004541 | 12 | 0.0 | 0.0 | 0.00 | 0.00 | 0.00 | 86 | 1009.4 | |
| 20260505003542 | 12 | 0.0 | 0.0 | 0.00 | 0.00 | 0.00 | 84 | 1009.5 | |
| 20260505002543 | 13 | 0.0 | 0.0 | 0.00 | 0.00 | 0.00 | 81 | 1009.7 | |
| 20260505001542 | 13 | 0.0 | 0.0 | 0.00 | 0.00 | 0.00 | 80 | 1009.7 | |
| 20260505000543 | 13 | 0.0 | 0.0 | 0.00 | 0.00 | 0.00 | 80 | 1009.8 | |
| 20260504235543 | 13 | 132 | 1.6 | 3.2 | 0.00 | 0.00 | 0.00 | 79 | 1009.9 |
| 20260504234544 | 13 | 116 | 0.0 | 1.6 | 0.00 | 0.00 | 0.00 | 79 | 1010.1 |
| 20260504233544 | 13 | 124 | 1.6 | 3.2 | 0.00 | 0.00 | 0.00 | 79 | 1010.1 |
| 20260504232605 | 13 | 118 | 1.6 | 3.2 | 0.00 | 0.00 | 0.00 | 79 | 1010.1 |
| 20260504231545 | 13 | 139 | 0.0 | 1.6 | 0.00 | 0.00 | 0.00 | 79 | 1010.3 |
| 20260504230546 | 13 | 0.0 | 1.6 | 0.00 | 0.00 | 0.00 | 78 | 1010.4 | |
| 20260504225546 | 14 | 129 | 0.0 | 1.6 | 0.00 | 0.00 | 0.00 | 78 | 1010.4 |
| 20260504224547 | 14 | 134 | 0.0 | 1.6 | 0.00 | 0.00 | 0.00 | 77 | 1010.3 |
| 20260504223547 | 15 | 0.0 | 0.0 | 0.00 | 0.00 | 0.00 | 75 | 1010.5 | |
| 20260504222547 | 15 | 171 | 0.0 | 3.2 | 0.00 | 0.00 | 0.00 | 74 | 1010.6 |
| 20260504221547 | 15 | 141 | 0.0 | 3.2 | 0.00 | 0.00 | 0.00 | 73 | 1010.7 |
| 20260504220548 | 15 | 116 | 1.6 | 3.2 | 0.00 | 0.00 | 0.00 | 72 | 1010.7 |
| 20260504215548 | 16 | 134 | 1.6 | 8.0 | 0.00 | 0.00 | 0.00 | 71 | 1010.9 |
| 20260504214548 | 16 | 175 | 1.6 | 4.8 | 0.00 | 0.00 | 0.00 | 71 | 1010.9 |
| 20260504213549 | 16 | 233 | 3.2 | 8.0 | 0.00 | 0.00 | 0.00 | 70 | 1011.0 |
| 20260504212610 | 16 | 9 | 3.2 | 9.7 | 0.00 | 0.00 | 0.00 | 69 | 1011.0 |
| 20260504211610 | 16 | 40 | 3.2 | 12.9 | 0.00 | 0.00 | 0.00 | 68 | 1010.9 |
| 20260504210550 | 16 | 341 | 3.2 | 11.3 | 0.00 | 0.00 | 0.00 | 66 | 1010.9 |
| 20260504205551 | 16 | 14 | 3.2 | 9.7 | 0.00 | 0.00 | 0.00 | 64 | 1010.7 |
| 20260504204551 | 16 | 91 | 1.6 | 4.8 | 0.00 | 0.00 | 0.00 | 64 | 1010.9 |
| 20260504203552 | 16 | 22 | 3.2 | 11.3 | 0.00 | 0.00 | 0.00 | 66 | 1010.8 |
| 20260504202552 | 15 | 0.0 | 0.0 | 0.00 | 0.00 | 0.00 | 70 | 1010.2 | |
| 20260504201553 | 15 | 0.0 | 0.0 | 0.00 | 0.00 | 0.00 | 70 | 1010.1 | |
| 20260504200553 | 15 | 0.0 | 0.0 | 0.00 | 0.00 | 0.00 | 68 | 1010.1 | |
| 20260504195614 | 16 | 71 | 0.0 | 1.6 | 0.00 | 0.00 | 0.00 | 67 | 1009.9 |
| 20260504194614 | 16 | 132 | 1.6 | 3.2 | 0.00 | 0.00 | 0.00 | 65 | 1009.9 |
| 20260504193554 | 17 | 164 | 3.2 | 4.8 | 0.00 | 0.00 | 0.00 | 64 | 1009.9 |
| 20260504192554 | 17 | 74 | 1.6 | 4.8 | 0.00 | 0.00 | 0.00 | 62 | 1009.8 |
| 20260504191615 | 17 | 85 | 0.0 | 1.6 | 0.00 | 0.00 | 0.00 | 63 | 1009.8 |
| 20260504190614 | 18 | 0.0 | 0.0 | 0.00 | 0.00 | 0.00 | 60 | 1009.9 | |
| 20260504185556 | 18 | 53 | 1.6 | 3.2 | 0.00 | 0.00 | 0.00 | 56 | 1009.7 |
| 20260504184556 | 19 | 53 | 1.6 | 4.8 | 0.00 | 0.00 | 0.00 | 55 | 1009.7 |
| 20260504183614 | 19 | 98 | 0.0 | 1.6 | 0.00 | 0.00 | 0.00 | 55 | 1009.5 |
| 20260504182618 | 20 | 85 | 0.0 | 1.6 | 0.00 | 0.00 | 0.00 | 53 | 1009.6 |
| 20260504181557 | 20 | 78 | 0.0 | 3.2 | 0.00 | 0.00 | 0.00 | 52 | 1009.5 |
| 20260504180634 | 21 | 67 | 0.0 | 3.2 | 0.00 | 0.00 | 0.00 | 52 | 1009.5 |
| 20260504175558 | 21 | 53 | 1.6 | 4.8 | 0.00 | 0.00 | 0.00 | 50 | 1009.5 |
| 20260504174639 | 21 | 23 | 1.6 | 4.8 | 0.00 | 0.00 | 0.00 | 49 | 1009.4 |
| 20260504173614 | 22 | 46 | 3.2 | 9.7 | 0.00 | 0.00 | 0.00 | 49 | 1009.4 |
| 20260504172559 | 22 | 46 | 1.6 | 8.0 | 0.00 | 0.00 | 0.00 | 48 | 1009.4 |
| 20260504171600 | 22 | 27 | 3.2 | 8.0 | 0.00 | 0.00 | 0.00 | 47 | 1009.3 |
| 20260504170614 | 22 | 35 | 3.2 | 8.0 | 0.00 | 0.00 | 0.00 | 46 | 1009.4 |
| 20260504150553 | 23 | 69 | 1.6 | 3.2 | 0.00 | 0.00 | 0.00 | 43 | 1009.7 |
| 20260504140536 | 24 | 70 | 4.8 | 11.3 | 0.00 | 0.00 | 0.00 | 42 | 1009.9 |
| 20260504130559 | 25 | 111 | 4.8 | 11.3 | 0.00 | 0.00 | 0.00 | 41 | 1010.6 |